Cloud_Cover
100 65 49 100 100 100 42 41 95 8 16 23 5 25 21 5 0 0 5 4 2 5 5 5 21 90 5 5 5 5 1 0
99 48 29 19 100 97 100 100 100 99 54 6 97 100 83 10 0 5 5 49 5 5 5 5 12 100 7 5 5 5 5 5
97 99 96 38 76 100 96 100 100 100 100 75 100 44 100 9 5 5 5 6 93 100 81 9 77 100 99 5 5 17 34 5
100 99 100 88 100 63 42 100 100 100 100 100 86 89 100 100 87 34 37 13 5 65 100 100 98 100 100 9 13 27 5 5
100 98 80 85 100 76 27 90 100 100 100 100 73 100 100 100 95 100 42 56 17 5 17 93 100 100 100 95 28 63 20 10
72 74 74 53 96 100 64 100 100 100 100 100 100 100 100 100 100 100 94 89 18 5 7 5 80 100 100 100 85 12 88 90
90 78 99 88 99 80 92 100 100 100 100 100 100 100 100 100 100 100 99 100 69 64 75 84 52 100 100 100 100 100 100 97
68 96 40 98 96 100 100 100 100 100 100 100 100 100 100 100 100 100 100 86 84 100 100 88 89 100 100 100 100 100 100 100
95 100 64 46 80 99 100 100 100 100 100 100 80 100 100 93 48 99 100 100 100 100 100 99 75 98 100 100 100 100 100 100
100 100 96 28 73 100 100 100 100 100 100 97 98 82 93 99 99 100 100 100 100 100 100 100 100 100 100 100 100 100 100 100
100 100 100 43 93 100 100 100 100 100 100 94 100 100 100 97 78 84 94 100 100 95 90 97 100 100 100 100 100 100 100 100
99 100 100 98 78 54 100 100 100 100 100 100 100 99 100 96 100 99 100 100 100 74 96 100 100 100 99 97 90 100 100 100
92 100 100 100 100 100 100 95 100 100 100 100 100 100 100 100 100 100 100 94 100 100 100 68 87 100 100 100 100 100 90 100
100 100 100 100 100 100 100 88 87 100 100 100 100 100 100 97 85 88 100 81 97 100 98 74 94 100 100 100 100 100 100 100
66 99 90 100 100 100 100 100 100 100 100 100 100 100 100 100 100 100 96 68 100 100 94 100 98 100 100 100 100 100 100 100
80 79 100 100 100 100 100 100 100 100 100 100 100 100 100 100 100 100 100 100 100 100 96 100 84 89 92 78 92 100 100 100
100 100 100 100 100 100 100 100 100 100 100 100 100 100 100 100 100 100 100 100 100 100 100 100 100 95 100 100 100 100 100 100
100 100 100 100 100 100 100 100 100 100 100 100 100 100 100 100 100 100 100 100 100 100 100 100 98 100 100 100 100 100 100 100
100 100 100 100 100 100 100 100 100 100 100 100 100 100 100 100 100 100 100 100 100 100 100 100 99 95 99 100 100 100 100 100
100 100 100 100 100 100 100 100 100 100 100 100 100 100 100 100 100 100 100 100 100 100 100 100 100 100 100 100 100 100 100 100